| time (UTC) | temp C | wind direction | speed KPH | gust KPH | rain 1hr cm | rain 24hr cm | rain mn cm | humidity % | barometer mb |
| 20260508005245 | 21 | 345 | 6.4 | 9.7 | 0.00 | 0.00 | 0.00 | 26 | 1009.4 |
| 20260508004733 | 21 | 340 | 6.4 | 12.9 | 0.00 | 0.00 | 0.00 | 26 | 1009.4 |
| 20260508004514 | 21 | 316 | 6.4 | 20.9 | 0.00 | 0.00 | 0.00 | 26 | 1008.9 |
| 20260508004246 | 21 | 333 | 6.4 | 20.9 | 0.00 | 0.00 | 0.00 | 25 | 1009.2 |
| 20260508003728 | 21 | 327 | 12.9 | 22.5 | 0.00 | 0.00 | 0.00 | 25 | 1009.1 |
| 20260508003241 | 21 | 331 | 14.5 | 22.5 | 0.00 | 0.00 | 0.00 | 24 | 1009.2 |
| 20260508003022 | 21 | 321 | 14.5 | 22.5 | 0.00 | 0.00 | 0.00 | 24 | 1008.7 |
| 20260508002725 | 21 | 355 | 11.3 | 19.3 | 0.00 | 0.00 | 0.00 | 24 | 1009.2 |
| 20260508002234 | 21 | 305 | 11.3 | 25.7 | 0.00 | 0.00 | 0.00 | 23 | 1009.2 |
| 20260508001805 | 22 | 343 | 14.5 | 25.7 | 0.00 | 0.00 | 0.00 | 23 | 1009.1 |
| 20260508001503 | 21 | 317 | 12.9 | 20.9 | 0.00 | 0.00 | 0.00 | 23 | 1008.6 |
| 20260508001230 | 22 | 317 | 12.9 | 24.1 | 0.00 | 0.00 | 0.00 | 24 | 1009.1 |
| 20260508000740 | 22 | 334 | 16.1 | 25.7 | 0.00 | 0.00 | 0.00 | 24 | 1009.0 |
| 20260508000227 | 22 | 311 | 14.5 | 27.4 | 0.00 | 0.00 | 0.00 | 24 | 1009.0 |
| 20260508000011 | 22 | 325 | 14.5 | 27.4 | 0.00 | 0.00 | 0.00 | 24 | 1008.6 |
| 20260507235737 | 22 | 314 | 14.5 | 27.4 | 0.00 | 0.00 | 0.00 | 23 | 1009.0 |
| 20260507235249 | 22 | 304 | 17.7 | 32.2 | 0.00 | 0.00 | 0.00 | 24 | 1009.0 |
| 20260507234736 | 22 | 291 | 16.1 | 32.2 | 0.00 | 0.00 | 0.00 | 23 | 1009.0 |
| 20260507234505 | 22 | 321 | 20.9 | 32.2 | 0.00 | 0.00 | 0.00 | 23 | 1008.7 |
| 20260507234251 | 22 | 275 | 16.1 | 22.5 | 0.00 | 0.00 | 0.00 | 24 | 1009.1 |
| 20260507233741 | 22 | 292 | 11.3 | 19.3 | 0.00 | 0.00 | 0.00 | 25 | 1009.1 |
| 20260507233226 | 22 | 317 | 9.7 | 17.7 | 0.00 | 0.00 | 0.00 | 25 | 1009.0 |
| 20260507233044 | 22 | 302 | 11.3 | 25.7 | 0.00 | 0.00 | 0.00 | 25 | 1008.6 |
| 20260507232740 | 22 | 318 | 9.7 | 25.7 | 0.00 | 0.00 | 0.00 | 24 | 1009.0 |
| 20260507232224 | 22 | 324 | 19.3 | 25.7 | 0.00 | 0.00 | 0.00 | 24 | 1009.1 |
| 20260507231736 | 22 | 272 | 12.9 | 20.9 | 0.00 | 0.00 | 0.00 | 25 | 1009.0 |
| 20260507231552 | 22 | 292 | 9.7 | 20.9 | 0.00 | 0.00 | 0.00 | 27 | 1008.9 |
| 20260507231222 | 22 | 277 | 14.5 | 20.9 | 0.00 | 0.00 | 0.00 | 26 | 1009.1 |
| 20260507230749 | 22 | 331 | 9.7 | 27.4 | 0.00 | 0.00 | 0.00 | 27 | 1009.1 |
| 20260507230233 | 22 | 327 | 17.7 | 27.4 | 0.00 | 0.00 | 0.00 | 25 | 1009.0 |
| 20260507230052 | 22 | 330 | 17.7 | 27.4 | 0.00 | 0.00 | 0.00 | 27 | 1008.7 |
| 20260507225745 | 22 | 263 | 11.3 | 24.1 | 0.00 | 0.00 | 0.00 | 26 | 1009.0 |
| 20260507225227 | 22 | 342 | 14.5 | 25.7 | 0.00 | 0.00 | 0.00 | 27 | 1009.0 |
| 20260507224738 | 22 | 338 | 16.1 | 27.4 | 0.00 | 0.00 | 0.00 | 27 | 1009.0 |
| 20260507224559 | 22 | 343 | 17.7 | 27.4 | 0.00 | 0.00 | 0.00 | 26 | 1008.6 |
| 20260507224230 | 22 | 325 | 19.3 | 27.4 | 0.00 | 0.00 | 0.00 | 26 | 1009.1 |
| 20260507223740 | 22 | 312 | 12.9 | 25.7 | 0.00 | 0.00 | 0.00 | 27 | 1009.2 |
| 20260507223308 | 23 | 323 | 17.7 | 25.7 | 0.00 | 0.00 | 0.00 | 26 | 1009.2 |
| 20260507223022 | 22 | 324 | 9.7 | 24.1 | 0.00 | 0.00 | 0.00 | 27 | 1008.8 |
| 20260507222730 | 22 | 291 | 14.5 | 24.1 | 0.00 | 0.00 | 0.00 | 27 | 1009.2 |
| 20260507222245 | 22 | 319 | 19.3 | 25.7 | 0.00 | 0.00 | 0.00 | 26 | 1009.2 |
| 20260507221728 | 23 | 321 | 19.3 | 29.0 | 0.00 | 0.00 | 0.00 | 26 | 1009.2 |
| 20260507221529 | 22 | 315 | 17.7 | 30.6 | 0.00 | 0.00 | 0.00 | 26 | 1008.9 |
| 20260507221241 | 22 | 296 | 16.1 | 30.6 | 0.00 | 0.00 | 0.00 | 26 | 1009.2 |
| 20260507220724 | 23 | 338 | 20.9 | 30.6 | 0.00 | 0.00 | 0.00 | 25 | 1009.2 |
| 20260507220235 | 23 | 292 | 17.7 | 29.0 | 0.00 | 0.00 | 0.00 | 25 | 1009.2 |
| 20260507220031 | 23 | 298 | 11.3 | 32.2 | 0.00 | 0.00 | 0.00 | 26 | 1008.8 |
| 20260507215743 | 23 | 284 | 14.5 | 32.2 | 0.00 | 0.00 | 0.00 | 25 | 1009.2 |
| 20260507215227 | 23 | 278 | 20.9 | 37.0 | 0.00 | 0.00 | 0.00 | 24 | 1009.2 |
| 20260507214739 | 23 | 305 | 27.4 | 37.0 | 0.00 | 0.00 | 0.00 | 25 | 1009.1 |
| 20260507214538 | 22 | 294 | 20.9 | 35.4 | 0.00 | 0.00 | 0.00 | 24 | 1008.7 |
| 20260507214252 | 23 | 286 | 25.7 | 38.6 | 0.00 | 0.00 | 0.00 | 23 | 1009.1 |
| 20260507213743 | 23 | 275 | 24.1 | 38.6 | 0.00 | 0.00 | 0.00 | 22 | 1009.2 |
| 20260507213223 | 23 | 320 | 17.7 | 29.0 | 0.00 | 0.00 | 0.00 | 26 | 1009.2 |
| 20260507213020 | 23 | 309 | 14.5 | 32.2 | 0.00 | 0.00 | 0.00 | 28 | 1008.8 |
| 20260507212734 | 23 | 313 | 16.1 | 32.2 | 0.00 | 0.00 | 0.00 | 26 | 1009.3 |
| 20260507212246 | 23 | 305 | 22.5 | 41.8 | 0.00 | 0.00 | 0.00 | 26 | 1009.2 |
| 20260507211728 | 23 | 296 | 29.0 | 41.8 | 0.00 | 0.00 | 0.00 | 25 | 1009.1 |
| 20260507211526 | 23 | 302 | 27.4 | 38.6 | 0.00 | 0.00 | 0.00 | 26 | 1008.8 |
| 20260507211241 | 23 | 343 | 24.1 | 37.0 | 0.00 | 0.00 | 0.00 | 27 | 1009.2 |
| 20260507210725 | 23 | 344 | 16.1 | 37.0 | 0.00 | 0.00 | 0.00 | 27 | 1009.2 |
| 20260507210258 | 23 | 333 | 17.7 | 33.8 | 0.00 | 0.00 | 0.00 | 27 | 1009.4 |
| 20260507210058 | 22 | 305 | 9.7 | 32.2 | 0.00 | 0.00 | 0.00 | 27 | 1008.9 |
| 20260507210005 | 22 | 252 | 9.7 | 32.2 | 0.00 | 0.00 | 0.00 | 27 | 1008.9 |
| 20260507205722 | 23 | 250 | 17.7 | 32.2 | 0.00 | 0.00 | 0.00 | 28 | 1009.4 |
| 20260507205234 | 23 | 296 | 19.3 | 38.6 | 0.00 | 0.00 | 0.00 | 26 | 1009.3 |
| 20260507204746 | 23 | 292 | 27.4 | 38.6 | 0.00 | 0.00 | 0.00 | 24 | 1009.4 |
| 20260507204516 | 23 | 284 | 20.9 | 35.4 | 0.00 | 0.00 | 0.00 | 26 | 1009.1 |
| 20260507204231 | 23 | 293 | 20.9 | 35.4 | 0.00 | 0.00 | 0.00 | 25 | 1009.4 |
| 20260507203736 | 23 | 300 | 19.3 | 33.8 | 0.00 | 0.00 | 0.00 | 26 | 1009.5 |
| 20260507203221 | 23 | 319 | 22.5 | 33.8 | 0.00 | 0.00 | 0.00 | 23 | 1009.5 |
| 20260507203020 | 23 | 266 | 22.5 | 33.8 | 0.00 | 0.00 | 0.00 | 23 | 1009.1 |
| 20260507202732 | 23 | 290 | 20.9 | 33.8 | 0.00 | 0.00 | 0.00 | 26 | 1009.6 |
| 20260507202242 | 23 | 302 | 20.9 | 38.6 | 0.00 | 0.00 | 0.00 | 27 | 1009.6 |
| 20260507201727 | 23 | 229 | 12.9 | 38.6 | 0.00 | 0.00 | 0.00 | 28 | 1009.6 |
| 20260507201524 | 23 | 249 | 19.3 | 38.6 | 0.00 | 0.00 | 0.00 | 27 | 1009.3 |
| 20260507201242 | 23 | 284 | 16.1 | 33.8 | 0.00 | 0.00 | 0.00 | 29 | 1009.6 |
| 20260507200726 | 24 | 300 | 25.7 | 32.2 | 0.00 | 0.00 | 0.00 | 25 | 1009.6 |
| 20260507200253 | 24 | 323 | 20.9 | 30.6 | 0.00 | 0.00 | 0.00 | 25 | 1009.6 |
| 20260507200103 | 23 | 294 | 19.3 | 30.6 | 0.00 | 0.00 | 0.00 | 27 | 1009.3 |
| 20260507195803 | 23 | 297 | 16.1 | 35.4 | 0.00 | 0.00 | 0.00 | 31 | 1009.6 |
| 20260507195226 | 23 | 275 | 19.3 | 35.4 | 0.00 | 0.00 | 0.00 | 30 | 1009.7 |
| 20260507194739 | 23 | 290 | 17.7 | 32.2 | 0.00 | 0.00 | 0.00 | 31 | 1009.6 |
| 20260507194539 | 23 | 342 | 22.5 | 40.2 | 0.00 | 0.00 | 0.00 | 29 | 1009.3 |
| 20260507194224 | 23 | 289 | 20.9 | 40.2 | 0.00 | 0.00 | 0.00 | 30 | 1009.6 |
| 20260507193733 | 23 | 306 | 25.7 | 40.2 | 0.00 | 0.00 | 0.00 | 28 | 1009.5 |
| 20260507193246 | 23 | 238 | 17.7 | 30.6 | 0.00 | 0.00 | 0.00 | 28 | 1009.6 |
| 20260507193051 | 23 | 251 | 20.9 | 30.6 | 0.00 | 0.00 | 0.00 | 25 | 1009.2 |
| 20260507192729 | 23 | 262 | 20.9 | 29.0 | 0.00 | 0.00 | 0.00 | 29 | 1009.7 |
| 20260507192236 | 22 | 209 | 12.9 | 27.4 | 0.00 | 0.00 | 0.00 | 35 | 1009.7 |
| 20260507191748 | 22 | 317 | 12.9 | 33.8 | 0.00 | 0.00 | 0.00 | 31 | 1009.6 |
| 20260507191547 | 22 | 297 | 19.3 | 33.8 | 0.00 | 0.00 | 0.00 | 32 | 1009.3 |
| 20260507191233 | 23 | 244 | 25.7 | 37.0 | 0.00 | 0.00 | 0.00 | 33 | 1009.7 |
| 20260507190742 | 22 | 252 | 17.7 | 37.0 | 0.00 | 0.00 | 0.00 | 33 | 1009.6 |
| 20260507190226 | 22 | 263 | 14.5 | 30.6 | 0.00 | 0.00 | 0.00 | 34 | 1009.6 |
| 20260507190049 | 22 | 216 | 14.5 | 30.6 | 0.00 | 0.00 | 0.00 | 32 | 1009.4 |
| 20260507185737 | 21 | 279 | 22.5 | 32.2 | 0.00 | 0.00 | 0.00 | 34 | 1009.7 |
| 20260507185249 | 21 | 279 | 19.3 | 35.4 | 0.00 | 0.00 | 0.00 | 33 | 1009.8 |
| 20260507184730 | 23 | 238 | 22.5 | 33.8 | 0.00 | 0.00 | 0.00 | 31 | 1009.8 |
| 20260507184533 | 22 | 206 | 14.5 | 24.1 | 0.00 | 0.00 | 0.00 | 31 | 1009.7 |
| 20260507184302 | 23 | 257 | 9.7 | 22.5 | 0.00 | 0.00 | 0.00 | 37 | 1010.0 |
| 20260507183722 | 22 | 247 | 14.5 | 33.8 | 0.00 | 0.00 | 0.00 | 32 | 1010.0 |
| 20260507183235 | 21 | 267 | 14.5 | 30.6 | 0.00 | 0.00 | 0.00 | 35 | 1010.2 |
| 20260507183013 | 21 | 219 | 14.5 | 30.6 | 0.00 | 0.00 | 0.00 | 33 | 1009.9 |
| 20260507182745 | 22 | 284 | 19.3 | 30.6 | 0.00 | 0.00 | 0.00 | 34 | 1010.2 |
| 20260507182234 | 21 | 271 | 20.9 | 33.8 | 0.00 | 0.00 | 0.00 | 34 | 1010.2 |
| 20260507181746 | 21 | 254 | 24.1 | 33.8 | 0.00 | 0.00 | 0.00 | 34 | 1010.4 |
| 20260507181559 | 21 | 227 | 22.5 | 37.0 | 0.00 | 0.00 | 0.00 | 33 | 1010.2 |
| 20260507181228 | 21 | 238 | 24.1 | 37.0 | 0.00 | 0.00 | 0.00 | 33 | 1010.5 |
| 20260507180739 | 21 | 245 | 25.7 | 37.0 | 0.00 | 0.00 | 0.00 | 33 | 1010.5 |
| 20260507180223 | 21 | 259 | 17.7 | 46.7 | 0.00 | 0.00 | 0.00 | 35 | 1010.5 |
| 20260507180017 | 21 | 194 | 25.7 | 46.7 | 0.00 | 0.00 | 0.00 | 33 | 1010.2 |
| 20260507175733 | 21 | 215 | 20.9 | 38.6 | 0.00 | 0.00 | 0.00 | 36 | 1010.3 |
| 20260507175244 | 21 | 260 | 22.5 | 35.4 | 0.00 | 0.00 | 0.00 | 34 | 1010.5 |
| 20260507174726 | 21 | 260 | 24.1 | 38.6 | 0.00 | 0.00 | 0.00 | 33 | 1010.6 |
| 20260507174512 | 21 | 256 | 24.1 | 38.6 | 0.00 | 0.00 | 0.00 | 34 | 1010.4 |
| 20260507174238 | 21 | 259 | 22.5 | 38.6 | 0.00 | 0.00 | 0.00 | 32 | 1010.6 |
| 20260507173721 | 21 | 215 | 22.5 | 41.8 | 0.00 | 0.00 | 0.00 | 32 | 1010.7 |
| 20260507173309 | 21 | 234 | 30.6 | 41.8 | 0.00 | 0.00 | 0.00 | 31 | 1010.7 |
| 20260507173048 | 21 | 225 | 22.5 | 40.2 | 0.00 | 0.00 | 0.00 | 31 | 1010.4 |
| 20260507172729 | 21 | 234 | 20.9 | 40.2 | 0.00 | 0.00 | 0.00 | 31 | 1010.7 |
| 20260507172239 | 21 | 230 | 25.7 | 40.2 | 0.00 | 0.00 | 0.00 | 31 | 1010.7 |
| 20260507171722 | 21 | 241 | 20.9 | 40.2 | 0.00 | 0.00 | 0.00 | 32 | 1010.8 |
| 20260507171559 | 21 | 219 | 22.5 | 40.2 | 0.00 | 0.00 | 0.00 | 32 | 1010.6 |
| 20260507171236 | 21 | 201 | 20.9 | 38.6 | 0.00 | 0.00 | 0.00 | 31 | 1010.8 |
| 20260507170806 | 21 | 221 | 19.3 | 33.8 | 0.00 | 0.00 | 0.00 | 32 | 1011.0 |
| 20260507170227 | 21 | 199 | 20.9 | 40.2 | 0.00 | 0.00 | 0.00 | 31 | 1011.1 |
| 20260507170031 | 20 | 212 | 22.5 | 40.2 | 0.00 | 0.00 | 0.00 | 30 | 1010.9 |
| 20260507165734 | 20 | 225 | 12.9 | 37.0 | 0.00 | 0.00 | 0.00 | 33 | 1011.2 |
| 20260507165246 | 21 | 227 | 22.5 | 37.0 | 0.00 | 0.00 | 0.00 | 33 | 1011.3 |
| 20260507164730 | 20 | 211 | 20.9 | 32.2 | 0.00 | 0.00 | 0.00 | 34 | 1011.3 |
| 20260507164539 | 20 | 217 | 17.7 | 32.2 | 0.00 | 0.00 | 0.00 | 32 | 1011.1 |
| 20260507164244 | 20 | 213 | 22.5 | 35.4 | 0.00 | 0.00 | 0.00 | 30 | 1011.3 |
| 20260507163724 | 20 | 167 | 17.7 | 35.4 | 0.00 | 0.00 | 0.00 | 32 | 1011.3 |
| 20260507163234 | 20 | 200 | 22.5 | 35.4 | 0.00 | 0.00 | 0.00 | 33 | 1011.4 |
| 20260507163036 | 19 | 229 | 17.7 | 30.6 | 0.00 | 0.00 | 0.00 | 34 | 1011.3 |
| 20260507162745 | 19 | 214 | 19.3 | 33.8 | 0.00 | 0.00 | 0.00 | 34 | 1011.6 |
| 20260507162226 | 19 | 236 | 20.9 | 33.8 | 0.00 | 0.00 | 0.00 | 36 | 1011.6 |
| 20260507161753 | 18 | 215 | 20.9 | 32.2 | 0.00 | 0.00 | 0.00 | 35 | 1011.7 |
| 20260507161519 | 18 | 213 | 20.9 | 32.2 | 0.00 | 0.00 | 0.00 | 37 | 1011.7 |
| 20260507161224 | 18 | 225 | 20.9 | 32.2 | 0.00 | 0.00 | 0.00 | 39 | 1011.7 |
| 20260507160732 | 18 | 216 | 20.9 | 32.2 | 0.00 | 0.00 | 0.00 | 38 | 1011.8 |
| 20260507160243 | 19 | 221 | 19.3 | 32.2 | 0.00 | 0.00 | 0.00 | 41 | 1012.0 |
| 20260507160050 | 18 | 200 | 19.3 | 32.2 | 0.00 | 0.00 | 0.00 | 43 | 1011.9 |
| 20260507155726 | 18 | 231 | 17.7 | 25.7 | 0.00 | 0.00 | 0.00 | 41 | 1012.1 |
| 20260507155238 | 17 | 216 | 14.5 | 25.7 | 0.00 | 0.00 | 0.00 | 44 | 1012.2 |
| 20260507154722 | 17 | 219 | 16.1 | 25.7 | 0.00 | 0.00 | 0.00 | 45 | 1012.2 |
| 20260507154543 | 17 | 242 | 17.7 | 25.7 | 0.00 | 0.00 | 0.00 | 46 | 1012.1 |
| 20260507154230 | 17 | 239 | 17.7 | 27.4 | 0.00 | 0.00 | 0.00 | 47 | 1012.2 |
| 20260507153737 | 17 | 220 | 16.1 | 33.8 | 0.00 | 0.00 | 0.00 | 45 | 1012.2 |
| 20260507153249 | 17 | 244 | 19.3 | 33.8 | 0.00 | 0.00 | 0.00 | 44 | 1012.3 |
| 20260507153046 | 17 | 230 | 19.3 | 25.7 | 0.00 | 0.00 | 0.00 | 44 | 1012.2 |
| 20260507152731 | 17 | 186 | 14.5 | 25.7 | 0.00 | 0.00 | 0.00 | 47 | 1012.3 |
| 20260507152242 | 17 | 211 | 12.9 | 25.7 | 0.00 | 0.00 | 0.00 | 48 | 1012.3 |
| 20260507151725 | 16 | 239 | 19.3 | 24.1 | 0.00 | 0.00 | 0.00 | 47 | 1012.4 |
| 20260507151550 | 16 | 254 | 17.7 | 24.1 | 0.00 | 0.00 | 0.00 | 46 | 1012.3 |
| 20260507151239 | 17 | 193 | 17.7 | 24.1 | 0.00 | 0.00 | 0.00 | 48 | 1012.4 |
| 20260507150744 | 16 | 232 | 12.9 | 25.7 | 0.00 | 0.00 | 0.00 | 52 | 1012.4 |
| 20260507150227 | 16 | 235 | 16.1 | 25.7 | 0.00 | 0.00 | 0.00 | 51 | 1012.5 |
| 20260507150052 | 15 | 250 | 16.1 | 25.7 | 0.00 | 0.00 | 0.00 | 52 | 1012.4 |
| 20260507145738 | 16 | 225 | 16.1 | 29.0 | 0.00 | 0.00 | 0.00 | 52 | 1012.6 |
| 20260507145220 | 15 | 214 | 12.9 | 29.0 | 0.00 | 0.00 | 0.00 | 53 | 1012.6 |
| 20260507144734 | 15 | 225 | 16.1 | 25.7 | 0.00 | 0.00 | 0.00 | 56 | 1012.6 |
| 20260507144616 | 15 | 221 | 14.5 | 25.7 | 0.00 | 0.00 | 0.00 | 55 | 1012.5 |
| 20260507144246 | 15 | 211 | 11.3 | 25.7 | 0.00 | 0.00 | 0.00 | 54 | 1012.6 |
| 20260507143726 | 15 | 192 | 16.1 | 27.4 | 0.00 | 0.00 | 0.00 | 56 | 1012.7 |
| 20260507143235 | 15 | 228 | 20.9 | 27.4 | 0.00 | 0.00 | 0.00 | 55 | 1012.7 |
| 20260507143052 | 14 | 222 | 19.3 | 27.4 | 0.00 | 0.00 | 0.00 | 56 | 1012.7 |
| 20260507142742 | 14 | 250 | 20.9 | 29.0 | 0.00 | 0.00 | 0.00 | 57 | 1012.7 |
| 20260507142223 | 14 | 214 | 14.5 | 29.0 | 0.00 | 0.00 | 0.00 | 57 | 1012.8 |
| 20260507141754 | 13 | 221 | 17.7 | 25.7 | 0.00 | 0.00 | 0.00 | 58 | 1012.8 |
| 20260507141520 | 13 | 223 | 16.1 | 29.0 | 0.00 | 0.00 | 0.00 | 60 | 1012.8 |
| 20260507141246 | 13 | 227 | 14.5 | 29.0 | 0.00 | 0.00 | 0.00 | 59 | 1012.9 |
| 20260507140728 | 13 | 220 | 16.1 | 24.1 | 0.00 | 0.00 | 0.00 | 60 | 1012.9 |
| 20260507140238 | 13 | 228 | 16.1 | 29.0 | 0.00 | 0.00 | 0.00 | 62 | 1012.9 |
| 20260507140020 | 12 | 216 | 17.7 | 30.6 | 0.00 | 0.00 | 0.00 | 61 | 1013.0 |
| 20260507135750 | 13 | 238 | 17.7 | 30.6 | 0.00 | 0.00 | 0.00 | 62 | 1013.0 |
| 20260507135236 | 12 | 229 | 19.3 | 32.2 | 0.00 | 0.00 | 0.00 | 62 | 1013.0 |
| 20260507134747 | 12 | 223 | 19.3 | 32.2 | 0.00 | 0.00 | 0.00 | 63 | 1013.0 |
| 20260507134600 | 12 | 239 | 16.1 | 27.4 | 0.00 | 0.00 | 0.00 | 63 | 1013.0 |
| 20260507134232 | 12 | 243 | 16.1 | 27.4 | 0.00 | 0.00 | 0.00 | 64 | 1013.1 |
| 20260507133742 | 12 | 234 | 16.1 | 27.4 | 0.00 | 0.00 | 0.00 | 66 | 1013.1 |
| 20260507133225 | 11 | 231 | 19.3 | 27.4 | 0.00 | 0.00 | 0.00 | 67 | 1013.1 |
| 20260507133004 | 11 | 250 | 19.3 | 32.2 | 0.00 | 0.00 | 0.00 | 66 | 1013.1 |
| 20260507132737 | 11 | 225 | 17.7 | 32.2 | 0.00 | 0.00 | 0.00 | 67 | 1013.1 |
| 20260507132246 | 11 | 211 | 17.7 | 32.2 | 0.00 | 0.00 | 0.00 | 68 | 1013.2 |
| 20260507131729 | 11 | 216 | 16.1 | 24.1 | 0.00 | 0.00 | 0.00 | 69 | 1013.2 |
| 20260507131506 | 10 | 221 | 14.5 | 24.1 | 0.00 | 0.00 | 0.00 | 70 | 1013.2 |
| 20260507131237 | 10 | 184 | 14.5 | 24.1 | 0.00 | 0.00 | 0.00 | 71 | 1013.2 |
| 20260507130746 | 10 | 218 | 16.1 | 24.1 | 0.00 | 0.00 | 0.00 | 72 | 1013.3 |
| 20260507130229 | 10 | 211 | 16.1 | 22.5 | 0.00 | 0.00 | 0.00 | 73 | 1013.4 |
| 20260507130006 | 9 | 238 | 12.9 | 22.5 | 0.00 | 0.00 | 0.00 | 74 | 1013.4 |
| 20260507125741 | 10 | 238 | 17.7 | 22.5 | 0.00 | 0.00 | 0.00 | 74 | 1013.4 |
| 20260507125225 | 9 | 217 | 14.5 | 19.3 | 0.00 | 0.00 | 0.00 | 75 | 1013.5 |
| 20260507124735 | 9 | 242 | 14.5 | 27.4 | 0.00 | 0.00 | 0.00 | 76 | 1013.5 |
| 20260507124516 | 8 | 230 | 12.9 | 27.4 | 0.00 | 0.00 | 0.00 | 76 | 1013.5 |
| 20260507124230 | 8 | 231 | 17.7 | 27.4 | 0.00 | 0.00 | 0.00 | 76 | 1013.5 |
| 20260507123738 | 8 | 229 | 17.7 | 25.7 | 0.00 | 0.00 | 0.00 | 77 | 1013.4 |
| 20260507123245 | 8 | 215 | 17.7 | 25.7 | 0.00 | 0.00 | 0.00 | 77 | 1013.4 |
| 20260507123051 | 8 | 234 | 14.5 | 24.1 | 0.00 | 0.00 | 0.00 | 78 | 1013.4 |
| 20260507122735 | 8 | 209 | 17.7 | 24.1 | 0.00 | 0.00 | 0.00 | 78 | 1013.4 |
| 20260507122308 | 8 | 238 | 12.9 | 19.3 | 0.00 | 0.00 | 0.00 | 79 | 1013.4 |
| 20260507121729 | 7 | 225 | 14.5 | 22.5 | 0.00 | 0.00 | 0.00 | 79 | 1013.5 |
| 20260507121532 | 7 | 226 | 14.5 | 22.5 | 0.00 | 0.00 | 0.00 | 80 | 1013.6 |
| 20260507121243 | 7 | 219 | 16.1 | 22.5 | 0.00 | 0.00 | 0.00 | 80 | 1013.5 |
| 20260507120726 | 7 | 225 | 14.5 | 22.5 | 0.00 | 0.00 | 0.00 | 80 | 1013.4 |
| 20260507120238 | 7 | 210 | 14.5 | 19.3 | 0.00 | 0.00 | 0.00 | 81 | 1013.4 |
| 20260507120036 | 6 | 209 | 14.5 | 19.3 | 0.00 | 0.00 | 0.00 | 81 | 1013.5 |
| 20260507115745 | 6 | 198 | 12.9 | 17.7 | 0.00 | 0.00 | 0.00 | 81 | 1013.4 |
| 20260507115226 | 6 | 202 | 11.3 | 16.1 | 0.00 | 0.00 | 0.00 | 80 | 1013.4 |
| 20260507114738 | 6 | 210 | 12.9 | 17.7 | 0.00 | 0.00 | 0.00 | 80 | 1013.4 |
| 20260507114542 | 6 | 220 | 11.3 | 17.7 | 0.00 | 0.00 | 0.00 | 80 | 1013.4 |
| 20260507114252 | 6 | 209 | 11.3 | 16.1 | 0.00 | 0.00 | 0.00 | 80 | 1013.3 |
| 20260507113741 | 6 | 211 | 11.3 | 16.1 | 0.00 | 0.00 | 0.00 | 80 | 1013.4 |
| 20260507113224 | 6 | 221 | 11.3 | 16.1 | 0.00 | 0.00 | 0.00 | 80 | 1013.4 |
| 20260507113100 | 6 | 213 | 11.3 | 16.1 | 0.00 | 0.00 | 0.00 | 80 | 1013.4 |
| 20260507113006 | 6 | 213 | 11.3 | 16.1 | 0.00 | 0.00 | 0.00 | 79 | 1013.4 |
| 20260507112735 | 6 | 216 | 12.9 | 16.1 | 0.00 | 0.00 | 0.00 | 79 | 1013.4 |
| 20260507112243 | 6 | 200 | 12.9 | 19.3 | 0.00 | 0.00 | 0.00 | 79 | 1013.4 |
| 20260507111725 | 6 | 209 | 14.5 | 19.3 | 0.00 | 0.00 | 0.00 | 79 | 1013.4 |
| 20260507111509 | 6 | 211 | 12.9 | 19.3 | 0.00 | 0.00 | 0.00 | 79 | 1013.5 |
| 20260507111239 | 6 | 213 | 14.5 | 19.3 | 0.00 | 0.00 | 0.00 | 79 | 1013.4 |
| 20260507110747 | 7 | 217 | 14.5 | 22.5 | 0.00 | 0.00 | 0.00 | 79 | 1013.4 |
| 20260507110232 | 6 | 217 | 14.5 | 22.5 | 0.00 | 0.00 | 0.00 | 79 | 1013.3 |
| 20260507110014 | 6 | 229 | 12.9 | 20.9 | 0.00 | 0.00 | 0.00 | 79 | 1013.4 |
| 20260507105743 | 7 | 214 | 12.9 | 19.3 | 0.00 | 0.00 | 0.00 | 79 | 1013.3 |
| 20260507105228 | 7 | 208 | 14.5 | 17.7 | 0.00 | 0.00 | 0.00 | 79 | 1013.3 |
| 20260507104741 | 7 | 211 | 12.9 | 17.7 | 0.00 | 0.00 | 0.00 | 78 | 1013.3 |
| 20260507104520 | 6 | 214 | 12.9 | 17.7 | 0.00 | 0.00 | 0.00 | 78 | 1013.3 |
| 20260507104226 | 7 | 218 | 12.9 | 20.9 | 0.00 | 0.00 | 0.00 | 78 | 1013.3 |
| 20260507103734 | 7 | 226 | 12.9 | 20.9 | 0.00 | 0.00 | 0.00 | 78 | 1013.3 |
| 20260507103246 | 7 | 209 | 12.9 | 16.1 | 0.00 | 0.00 | 0.00 | 78 | 1013.2 |
| 20260507103024 | 6 | 203 | 12.9 | 17.7 | 0.00 | 0.00 | 0.00 | 77 | 1013.3 |
| 20260507102729 | 7 | 194 | 11.3 | 16.1 | 0.00 | 0.00 | 0.00 | 77 | 1013.3 |
| 20260507102241 | 7 | 215 | 11.3 | 19.3 | 0.00 | 0.00 | 0.00 | 77 | 1013.3 |
| 20260507101725 | 7 | 207 | 12.9 | 19.3 | 0.00 | 0.00 | 0.00 | 77 | 1013.2 |
| 20260507101537 | 7 | 211 | 11.3 | 19.3 | 0.00 | 0.00 | 0.00 | 77 | 1013.3 |
| 20260507101238 | 7 | 188 | 12.9 | 17.7 | 0.00 | 0.00 | 0.00 | 76 | 1013.3 |
| 20260507100746 | 7 | 199 | 12.9 | 17.7 | 0.00 | 0.00 | 0.00 | 76 | 1013.3 |
| 20260507100231 | 7 | 216 | 12.9 | 19.3 | 0.00 | 0.00 | 0.00 | 76 | 1013.4 |
| 20260507100003 | 7 | 221 | 11.3 | 19.3 | 0.00 | 0.00 | 0.00 | 76 | 1013.5 |
| 20260507095745 | 7 | 204 | 11.3 | 19.3 | 0.00 | 0.00 | 0.00 | 76 | 1013.4 |
| 20260507095237 | 7 | 207 | 11.3 | 17.7 | 0.00 | 0.00 | 0.00 | 75 | 1013.4 |
| 20260507094750 | 7 | 213 | 11.3 | 22.5 | 0.00 | 0.00 | 0.00 | 76 | 1013.5 |
| 20260507094549 | 7 | 234 | 14.5 | 22.5 | 0.00 | 0.00 | 0.00 | 76 | 1013.6 |
| 20260507094232 | 7 | 203 | 16.1 | 22.5 | 0.00 | 0.00 | 0.00 | 76 | 1013.5 |
| 20260507093743 | 7 | 213 | 12.9 | 17.7 | 0.00 | 0.00 | 0.00 | 75 | 1013.5 |
| 20260507093226 | 7 | 213 | 14.5 | 19.3 | 0.00 | 0.00 | 0.00 | 75 | 1013.6 |
| 20260507093046 | 7 | 211 | 12.9 | 19.3 | 0.00 | 0.00 | 0.00 | 75 | 1013.7 |
| 20260507092736 | 7 | 199 | 14.5 | 19.3 | 0.00 | 0.00 | 0.00 | 75 | 1013.7 |
| 20260507092307 | 7 | 227 | 12.9 | 19.3 | 0.00 | 0.00 | 0.00 | 74 | 1013.7 |
| 20260507091728 | 7 | 227 | 12.9 | 16.1 | 0.00 | 0.00 | 0.00 | 74 | 1013.8 |
| 20260507091531 | 7 | 225 | 12.9 | 17.7 | 0.00 | 0.00 | 0.00 | 74 | 1013.8 |
| 20260507091239 | 7 | 231 | 12.9 | 17.7 | 0.00 | 0.00 | 0.00 | 74 | 1013.8 |
| 20260507090749 | 7 | 205 | 12.9 | 17.7 | 0.00 | 0.00 | 0.00 | 73 | 1013.9 |
| 20260507090232 | 7 | 246 | 12.9 | 19.3 | 0.00 | 0.00 | 0.00 | 73 | 1013.9 |
| 20260507090034 | 7 | 207 | 12.9 | 19.3 | 0.00 | 0.00 | 0.00 | 73 | 1014.1 |
| 20260507085744 | 7 | 200 | 12.9 | 16.1 | 0.00 | 0.00 | 0.00 | 73 | 1013.9 |
| 20260507085225 | 7 | 209 | 12.9 | 19.3 | 0.00 | 0.00 | 0.00 | 72 | 1014.1 |
| 20260507084733 | 7 | 230 | 12.9 | 17.7 | 0.00 | 0.00 | 0.00 | 72 | 1014.2 |
| 20260507084536 | 7 | 213 | 12.9 | 17.7 | 0.00 | 0.00 | 0.00 | 72 | 1014.3 |
| 20260507084245 | 7 | 227 | 14.5 | 19.3 | 0.00 | 0.00 | 0.00 | 72 | 1014.2 |
| 20260507083726 | 7 | 225 | 12.9 | 19.3 | 0.00 | 0.00 | 0.00 | 71 | 1014.2 |
| 20260507083237 | 7 | 203 | 12.9 | 16.1 | 0.00 | 0.00 | 0.00 | 71 | 1014.3 |
| 20260507083032 | 6 | 218 | 11.3 | 17.7 | 0.00 | 0.00 | 0.00 | 70 | 1014.4 |
| 20260507082233 | 7 | 211 | 12.9 | 17.7 | 0.00 | 0.00 | 0.00 | 70 | 1014.3 |
| 20260507081804 | 7 | 228 | 12.9 | 17.7 | 0.00 | 0.00 | 0.00 | 69 | 1014.4 |
| 20260507081533 | 6 | 226 | 12.9 | 17.7 | 0.00 | 0.00 | 0.00 | 69 | 1014.5 |
| 20260507081226 | 7 | 215 | 12.9 | 17.7 | 0.00 | 0.00 | 0.00 | 69 | 1014.5 |
| 20260507080733 | 7 | 219 | 11.3 | 16.1 | 0.00 | 0.00 | 0.00 | 68 | 1014.5 |
| 20260507080243 | 7 | 215 | 12.9 | 16.1 | 0.00 | 0.00 | 0.00 | 67 | 1014.7 |
| 20260507080039 | 6 | 228 | 12.9 | 16.1 | 0.00 | 0.00 | 0.00 | 67 | 1014.8 |
| 20260507075726 | 7 | 199 | 12.9 | 16.1 | 0.00 | 0.00 | 0.00 | 67 | 1014.7 |
| 20260507075256 | 7 | 211 | 12.9 | 17.7 | 0.00 | 0.00 | 0.00 | 66 | 1014.7 |
| 20260507074746 | 7 | 209 | 12.9 | 17.7 | 0.00 | 0.00 | 0.00 | 65 | 1014.7 |
| 20260507074520 | 6 | 217 | 12.9 | 17.7 | 0.00 | 0.00 | 0.00 | 65 | 1014.9 |
| 20260507074232 | 7 | 215 | 12.9 | 16.1 | 0.00 | 0.00 | 0.00 | 65 | 1014.7 |
| 20260507073740 | 6 | 216 | 12.9 | 16.1 | 0.00 | 0.00 | 0.00 | 65 | 1014.8 |
| 20260507073306 | 6 | 223 | 11.3 | 14.5 | 0.00 | 0.00 | 0.00 | 64 | 1014.8 |
| 20260507073101 | 6 | 221 | 9.7 | 14.5 | 0.00 | 0.00 | 0.00 | 63 | 1015.0 |
| 20260507072728 | 6 | 211 | 11.3 | 16.1 | 0.00 | 0.00 | 0.00 | 63 | 1014.9 |
| 20260507072239 | 6 | 211 | 9.7 | 16.1 | 0.00 | 0.00 | 0.00 | 61 | 1015.0 |
| 20260507071749 | 6 | 204 | 9.7 | 14.5 | 0.00 | 0.00 | 0.00 | 61 | 1015.1 |
| 20260507071557 | 6 | 210 | 9.7 | 14.5 | 0.00 | 0.00 | 0.00 | 60 | 1015.2 |
| 20260507071234 | 7 | 209 | 9.7 | 14.5 | 0.00 | 0.00 | 0.00 | 59 | 1015.2 |
| 20260507070743 | 7 | 197 | 9.7 | 12.9 | 0.00 | 0.00 | 0.00 | 59 | 1015.2 |
| 20260507070226 | 7 | 217 | 9.7 | 11.3 | 0.00 | 0.00 | 0.00 | 58 | 1015.3 |
| 20260507065737 | 7 | 199 | 9.7 | 12.9 | 0.00 | 0.00 | 0.00 | 58 | 1015.4 |
| 20260507065242 | 7 | 194 | 8.0 | 12.9 | 0.00 | 0.00 | 0.00 | 57 | 1015.4 |
| 20260507064726 | 7 | 205 | 8.0 | 12.9 | 0.00 | 0.00 | 0.00 | 56 | 1015.5 |
| 20260507064503 | 7 | 177 | 8.0 | 12.9 | 0.00 | 0.00 | 0.00 | 56 | 1015.7 |
| 20260507064239 | 7 | 203 | 8.0 | 12.9 | 0.00 | 0.00 | 0.00 | 56 | 1015.6 |
| 20260507063749 | 7 | 217 | 9.7 | 12.9 | 0.00 | 0.00 | 0.00 | 55 | 1015.6 |
| 20260507063238 | 7 | 196 | 9.7 | 14.5 | 0.00 | 0.00 | 0.00 | 55 | 1015.7 |
| 20260507063048 | 7 | 197 | 9.7 | 14.5 | 0.00 | 0.00 | 0.00 | 54 | 1015.8 |
| 20260507062749 | 7 | 209 | 8.0 | 12.9 | 0.00 | 0.00 | 0.00 | 54 | 1015.7 |
| 20260507062239 | 7 | 210 | 9.7 | 12.9 | 0.00 | 0.00 | 0.00 | 52 | 1015.8 |
| 20260507061747 | 7 | 207 | 6.4 | 9.7 | 0.00 | 0.00 | 0.00 | 51 | 1015.8 |
| 20260507061526 | 7 | 196 | 4.8 | 8.0 | 0.00 | 0.00 | 0.00 | 51 | 1015.9 |
| 20260507061234 | 7 | 182 | 4.8 | 9.7 | 0.00 | 0.00 | 0.00 | 50 | 1015.8 |
| 20260507060745 | 7 | 196 | 4.8 | 9.7 | 0.00 | 0.00 | 0.00 | 50 | 1015.9 |
| 20260507060227 | 7 | 189 | 6.4 | 9.7 | 0.00 | 0.00 | 0.00 | 49 | 1015.9 |
| 20260507060048 | 7 | 198 | 6.4 | 9.7 | 0.00 | 0.00 | 0.00 | 49 | 1016.0 |
| 20260507055734 | 7 | 202 | 6.4 | 9.7 | 0.00 | 0.00 | 0.00 | 49 | 1015.9 |
| 20260507055246 | 8 | 197 | 6.4 | 11.3 | 0.00 | 0.00 | 0.00 | 48 | 1015.9 |
| 20260507054728 | 8 | 191 | 8.0 | 11.3 | 0.00 | 0.00 | 0.00 | 48 | 1015.9 |
| 20260507054545 | 7 | 206 | 6.4 | 11.3 | 0.00 | 0.00 | 0.00 | 48 | 1016.1 |
| 20260507054240 | 8 | 199 | 6.4 | 11.3 | 0.00 | 0.00 | 0.00 | 48 | 1015.9 |
| 20260507053748 | 8 | 194 | 6.4 | 9.7 | 0.00 | 0.00 | 0.00 | 47 | 1016.0 |
| 20260507053233 | 8 | 187 | 6.4 | 9.7 | 0.00 | 0.00 | 0.00 | 47 | 1015.9 |
| 20260507053040 | 7 | 190 | 6.4 | 8.0 | 0.00 | 0.00 | 0.00 | 47 | 1016.0 |
| 20260507052744 | 8 | 167 | 8.0 | 9.7 | 0.00 | 0.00 | 0.00 | 47 | 1015.9 |
| 20260507052255 | 8 | 161 | 6.4 | 9.7 | 0.00 | 0.00 | 0.00 | 47 | 1015.9 |
| 20260507051805 | 8 | 169 | 8.0 | 9.7 | 0.00 | 0.00 | 0.00 | 47 | 1015.9 |
| 20260507051533 | 8 | 179 | 6.4 | 9.7 | 0.00 | 0.00 | 0.00 | 46 | 1016.1 |
| 20260507051229 | 8 | 169 | 6.4 | 9.7 | 0.00 | 0.00 | 0.00 | 46 | 1016.0 |
| 20260507050754 | 8 | 157 | 4.8 | 8.0 | 0.00 | 0.00 | 0.00 | 45 | 1016.1 |
| 20260507050245 | 8 | 157 | 4.8 | 8.0 | 0.00 | 0.00 | 0.00 | 45 | 1016.1 |
| 20260507050016 | 8 | 157 | 4.8 | 8.0 | 0.00 | 0.00 | 0.00 | 45 | 1016.2 |
| 20260507045749 | 8 | 170 | 4.8 | 8.0 | 0.00 | 0.00 | 0.00 | 45 | 1016.1 |
| 20260507045231 | 8 | 147 | 4.8 | 6.4 | 0.00 | 0.00 | 0.00 | 45 | 1016.1 |
| 20260507044741 | 8 | 147 | 3.2 | 6.4 | 0.00 | 0.00 | 0.00 | 45 | 1016.2 |
| 20260507044530 | 8 | 147 | 3.2 | 6.4 | 0.00 | 0.00 | 0.00 | 45 | 1016.2 |
| 20260507044224 | 8 | 147 | 4.8 | 8.0 | 0.00 | 0.00 | 0.00 | 44 | 1016.2 |
| 20260507043754 | 8 | 147 | 4.8 | 8.0 | 0.00 | 0.00 | 0.00 | 44 | 1016.2 |
| 20260507043241 | 8 | 132 | 4.8 | 8.0 | 0.00 | 0.00 | 0.00 | 44 | 1016.3 |
| 20260507043057 | 8 | 132 | 4.8 | 6.4 | 0.00 | 0.00 | 0.00 | 44 | 1016.3 |
| 20260507042753 | 8 | 132 | 4.8 | 6.4 | 0.00 | 0.00 | 0.00 | 44 | 1016.3 |
| 20260507042244 | 8 | 132 | 4.8 | 6.4 | 0.00 | 0.00 | 0.00 | 43 | 1016.3 |
| 20260507041726 | 8 | 132 | 6.4 | 6.4 | 0.00 | 0.00 | 0.00 | 43 | 1016.3 |
| 20260507041538 | 8 | 132 | 4.8 | 6.4 | 0.00 | 0.00 | 0.00 | 43 | 1016.4 |
| 20260507041240 | 8 | 132 | 4.8 | 6.4 | 0.00 | 0.00 | 0.00 | 43 | 1016.3 |
| 20260507040723 | 8 | 132 | 4.8 | 8.0 | 0.00 | 0.00 | 0.00 | 43 | 1016.3 |
| 20260507040236 | 9 | 132 | 4.8 | 8.0 | 0.00 | 0.00 | 0.00 | 42 | 1016.4 |
| 20260507040044 | 8 | 132 | 4.8 | 8.0 | 0.00 | 0.00 | 0.00 | 42 | 1016.5 |
| 20260507035744 | 9 | 169 | 3.2 | 6.4 | 0.00 | 0.00 | 0.00 | 42 | 1016.4 |
| 20260507035237 | 9 | 169 | 3.2 | 6.4 | 0.00 | 0.00 | 0.00 | 42 | 1016.4 |
| 20260507034748 | 9 | 169 | 1.6 | 6.4 | 0.00 | 0.00 | 0.00 | 42 | 1016.5 |
| 20260507034536 | 9 | 169 | 1.6 | 6.4 | 0.00 | 0.00 | 0.00 | 40 | 1016.7 |
| 20260507034234 | 9 | 169 | 3.2 | 6.4 | 0.00 | 0.00 | 0.00 | 40 | 1016.6 |
| 20260507033744 | 9 | 169 | 3.2 | 4.8 | 0.00 | 0.00 | 0.00 | 39 | 1016.6 |
| 20260507033226 | 10 | 169 | 4.8 | 6.4 | 0.00 | 0.00 | 0.00 | 38 | 1016.6 |
| 20260507033036 | 9 | 169 | 3.2 | 6.4 | 0.00 | 0.00 | 0.00 | 38 | 1016.7 |
| 20260507032738 | 10 | 169 | 4.8 | 8.0 | 0.00 | 0.00 | 0.00 | 38 | 1016.6 |
| 20260507032222 | 10 | 169 | 6.4 | 6.4 | 0.00 | 0.00 | 0.00 | 38 | 1016.7 |
| 20260507031729 | 10 | 169 | 6.4 | 6.4 | 0.00 | 0.00 | 0.00 | 37 | 1016.6 |
| 20260507031546 | 10 | 169 | 4.8 | 6.4 | 0.00 | 0.00 | 0.00 | 37 | 1016.7 |
| 20260507031242 | 10 | 169 | 4.8 | 6.4 | 0.00 | 0.00 | 0.00 | 37 | 1016.6 |
| 20260507030754 | 10 | 169 | 6.4 | 8.0 | 0.00 | 0.00 | 0.00 | 36 | 1016.7 |
| 20260507030246 | 10 | 169 | 4.8 | 8.0 | 0.00 | 0.00 | 0.00 | 36 | 1016.7 |
| 20260507030028 | 10 | 169 | 6.4 | 6.4 | 0.00 | 0.00 | 0.00 | 36 | 1016.7 |
| 20260507025728 | 11 | 169 | 6.4 | 8.0 | 0.00 | 0.00 | 0.00 | 36 | 1016.6 |
| 20260507025240 | 11 | 169 | 4.8 | 6.4 | 0.00 | 0.00 | 0.00 | 36 | 1016.6 |
| 20260507024752 | 11 | 169 | 4.8 | 8.0 | 0.00 | 0.00 | 0.00 | 36 | 1016.6 |
| 20260507024524 | 11 | 169 | 4.8 | 8.0 | 0.00 | 0.00 | 0.00 | 36 | 1016.7 |
| 20260507024240 | 11 | 169 | 4.8 | 9.7 | 0.00 | 0.00 | 0.00 | 35 | 1016.6 |
| 20260507023722 | 11 | 173 | 8.0 | 9.7 | 0.00 | 0.00 | 0.00 | 35 | 1016.5 |
| 20260507023235 | 11 | 177 | 3.2 | 4.8 | 0.00 | 0.00 | 0.00 | 34 | 1016.4 |
| 20260507023028 | 11 | 187 | 1.6 | 4.8 | 0.00 | 0.00 | 0.00 | 34 | 1016.5 |
| 20260507022747 | 11 | 187 | 3.2 | 4.8 | 0.00 | 0.00 | 0.00 | 34 | 1016.4 |
| 20260507022229 | 11 | 205 | 3.2 | 4.8 | 0.00 | 0.00 | 0.00 | 33 | 1016.4 |
| 20260507021741 | 11 | 205 | 3.2 | 4.8 | 0.00 | 0.00 | 0.00 | 32 | 1016.4 |
| 20260507021530 | 11 | 205 | 1.6 | 4.8 | 0.00 | 0.00 | 0.00 | 32 | 1016.5 |
| 20260507021226 | 12 | 205 | 3.2 | 4.8 | 0.00 | 0.00 | 0.00 | 32 | 1016.4 |
| 20260507020739 | 12 | 205 | 3.2 | 4.8 | 0.00 | 0.00 | 0.00 | 32 | 1016.4 |
| 20260507020221 | 12 | 205 | 1.6 | 4.8 | 0.00 | 0.00 | 0.00 | 31 | 1016.4 |
| 20260507020046 | 12 | 205 | 3.2 | 4.8 | 0.00 | 0.00 | 0.00 | 31 | 1016.4 |
| 20260507015728 | 12 | 205 | 3.2 | 4.8 | 0.00 | 0.00 | 0.00 | 31 | 1016.4 |
| 20260507015240 | 12 | 205 | 3.2 | 4.8 | 0.00 | 0.00 | 0.00 | 30 | 1016.4 |
| 20260507014725 | 12 | 205 | 3.2 | 4.8 | 0.00 | 0.00 | 0.00 | 30 | 1016.4 |
| 20260507014546 | 12 | 274 | 3.2 | 4.8 | 0.00 | 0.00 | 0.00 | 30 | 1016.5 |
| 20260507014258 | 12 | 274 | 3.2 | 4.8 | 0.00 | 0.00 | 0.00 | 30 | 1016.4 |
| 20260507013722 | 13 | 274 | 3.2 | 4.8 | 0.00 | 0.00 | 0.00 | 30 | 1016.3 |
| 20260507013233 | 13 | 274 | 0.0 | 3.2 | 0.00 | 0.00 | 0.00 | 30 | 1016.3 |
| 20260507013017 | 13 | 274 | 0.0 | 3.2 | 0.00 | 0.00 | 0.00 | 30 | 1016.3 |
| 20260507012800 | 13 | 274 | 1.6 | 3.2 | 0.00 | 0.00 | 0.00 | 29 | 1016.3 |
| 20260507012224 | 13 | 274 | 1.6 | 4.8 | 0.00 | 0.00 | 0.00 | 29 | 1016.3 |
| 20260507011736 | 14 | 274 | 3.2 | 4.8 | 0.00 | 0.00 | 0.00 | 29 | 1016.3 |
| 20260507011506 | 14 | 274 | 0.0 | 6.4 | 0.00 | 0.00 | 0.00 | 29 | 1016.4 |
| 20260507011251 | 14 | 274 | 3.2 | 6.4 | 0.00 | 0.00 | 0.00 | 29 | 1016.3 |
| 20260507010733 | 15 | 274 | 3.2 | 6.4 | 0.00 | 0.00 | 0.00 | 28 | 1016.3 |
| 20260507010243 | 15 | 298 | 3.2 | 6.4 | 0.00 | 0.00 | 0.00 | 27 | 1016.3 |
| 20260507010010 | 15 | 298 | 0.0 | 6.4 | 0.00 | 0.00 | 0.00 | 27 | 1016.4 |
| 20260507005726 | 15 | 298 | 3.2 | 6.4 | 0.00 | 0.00 | 0.00 | 27 | 1016.3 |